This demonstration page uses our WeatherBlox Daily Observations layout. Learn more.

Left ArrowRight Arrow

41.55636, -103.73856

Hourly Observations for May 26, 2020

Temp ( °F °C ) Dew Point ( °F °C ) Humidity (%) Winds ( mph kmh ) Pressure ( in mb ) Visibility ( mi km ) Precip ( " mm )
12:58 am 00:58 Mostly Cloudy 62 16.6 30 -1 30 30 N 12 19 30.03 1017 10 16 N/A
1:58 am 01:58 Mostly Clear 57 13.9 34 0.9 41 41 NNE 6 9 30.03 1017 10 16 N/A
2:58 am 02:58 Clear 54 12.3 32 undefined 43 43 ENE 6 9 30.04 1017 10 16 N/A
3:58 am 03:58 Clear 47 8.4 34 1.1 60 60 SSW 6 9 30.07 1018 10 16 N/A
4:58 am 04:58 Clear 44 6.4 35 1.4 71 71 SW 3 6 30.07 1018 10 16 N/A
5:58 am 05:58 Clear 43 6.2 34 1.2 71 71 SW 3 6 30.06 1018 10 16 N/A
6:58 am 06:58 Clear 42 5.5 34 1.1 74 74 SW 8 13 30.05 1018 10 16 N/A
7:58 am 07:58 Clear 44 6.4 34 1.2 70 70 WSW 6 9 30.03 1017 10 16 N/A
8:58 am 08:58 Clear 42 5.8 34 1 72 72 SW 5 7 30.01 1016 10 16 N/A
9:58 am 09:58 Clear 41 5.1 33 0.6 73 73 WSW 7 11 30.01 1016 10 16 N/A
10:58 am 10:58 Clear 41 5 33 0.6 73 73 WSW 3 6 30.00 1016 10 16 N/A
11:58 am 11:58 Sunny 40 4.6 33 0.4 74 74 WSW 3 6 29.99 1016 10 16 N/A
12:58 pm 12:58 Sunny 46 7.6 37 2.6 71 71 SW 6 9 29.98 1015 10 16 N/A
1:58 pm 13:58 Sunny 54 12.2 38 3.3 55 55 W 5 7 29.97 1015 10 16 N/A
2:58 pm 14:58 Sunny 60 15.6 42 5.6 52 52 NW 5 7 29.96 1015 10 16 N/A
3:58 pm 15:58 Sunny 65 18.6 35 1.8 33 33 NW 8 13 29.95 1014 10 16 N/A
4:58 pm 16:58 Sunny 69 20.4 29 -1.8 22 22 WNW 9 15 29.95 1014 10 16 N/A
5:58 pm 17:58 Sunny 71 21.6 31 -0.6 23 23 WNW 13 20 29.92 1013 10 16 N/A
6:58 pm 18:58 Sunny 73 22.7 33 0.5 23 23 NNW 12 19 29.92 1013 10 16 N/A
7:58 pm 19:58 Sunny 74 23.2 32 0.1 22 22 N 12 19 29.90 1013 10 16 N/A
8:58 pm 20:58 Sunny 74 23.6 31 -0.5 20 20 NNW 13 20 29.90 1013 10 16 N/A
9:58 pm 21:58 Sunny 75 23.7 33 0.6 22 22 N 9 15 29.90 1013 10 16 N/A
10:58 pm 22:58 Sunny 76 24.2 32 0.1 20 20 N 13 20 29.89 1012 10 16 N/A
11:58 pm 23:58 Sunny 76 24.2 33 0.7 21 21 NNW 10 17 29.90 1013 10 16 N/A

Powered by AerisWeather